[[{"header":{"parameterUnit":"m.s-1","parameterCategory":1,"la1":30.2991,"la2":30.254,"lo1":-89.0895,"lo2":-89.0444,"dx":0.0017,"dy":0.0017,"nx":28,"ny":28,"refTime":"2022-11-28T15:00:00:Z","depth":0,"parameterNumber":2,"parameterNumberName":"U-component_of_WINDS"},"data":[0,0,0,0,0,0,0,0,0,0,0,0,0,0,0,0,0,0,0,0,0,0,0,0,0,0,0,0,0,0,0,0,0,0,0,0,0,0,0,0,0,0,0,0,0,0,0,0,0,0,0,0,0,0,0,0,0,0,-3.9505,-3.9506,0,-3.9622,-3.9623,-3.9624,-3.9651,-3.965,-3.9649,-3.9648,-3.9767,-3.9771,-3.9775,0,0,0,0,0,0,0,0,0,0,0,0,0,-3.9304,-3.9307,-3.9504,-3.9506,-3.9507,-3.9621,-3.9623,-3.9625,-3.9651,-3.965,-3.9649,-3.9648,-3.9766,-3.9771,-3.9775,0,0,0,0,0,0,0,0,0,0,0,0,0,-3.9403,-3.9308,-3.9504,-3.9534,-3.9538,-3.9621,-3.9623,-3.9625,-3.9651,-3.965,-3.9648,-3.9647,-3.9764,-3.977,-3.9776,-3.9837,0,0,-3.9794,-3.9797,0,0,0,0,0,0,0,0,-3.9397,-3.941,-3.9528,-3.9532,-3.9537,-3.962,-3.9596,-3.9696,-3.9651,-3.9608,-3.9648,-3.9647,-3.9719,-3.9729,-3.9753,-3.9843,-3.9848,-3.9795,-3.9798,-3.9801,-3.9802,0,0,0,0,0,0,0,-3.939,-3.9405,-3.9551,-3.953,-3.9535,-3.9542,-3.9555,-3.9615,-3.9669,-3.9612,-3.9614,-3.9627,-3.9721,-3.9748,-3.9756,-3.985,-3.9794,-3.98,-3.9803,-3.9806,-3.9995,-3.9997,0,0,0,0,0,0,-3.9378,-3.9399,-3.9547,-3.9554,-3.9463,-3.9546,-3.9561,-3.9595,-3.9669,-3.9679,-3.9628,-3.9628,-3.9738,-3.975,-3.9761,-3.9837,-3.9801,-3.9806,-3.981,-3.9994,-3.9996,-3.9997,0,0,0,0,0,0,-3.9374,-3.9391,-3.9542,-3.9478,-3.9497,-3.9551,-3.9589,-3.9598,-3.9624,-3.9681,-3.9691,-3.9645,-3.9738,-3.9752,-3.9818,-3.9841,-3.9809,-3.9814,-3.9992,-3.9995,-3.9997,-3.999,0,0,0,0,0,0,-3.9368,-3.9389,-3.9413,-3.9478,-3.9501,-3.9598,-3.9591,-3.9601,-3.9634,-3.9635,-3.97,-3.9709,-3.9738,-3.9809,-3.9824,-3.9849,-3.9819,-3.999,-3.9993,-3.9996,-3.9988,-3.9992,-3.9995,0,0,0,0,0,-3.9361,-3.9406,-3.9414,-3.9432,-3.9531,-3.9599,-3.9612,-3.9644,-3.9636,-3.966,-3.9697,-3.9707,-3.9837,-3.9816,-3.9833,-3.986,-3.9989,-3.9992,-3.9996,-3.9987,-3.9991,-3.9995,0,0,0,0,0,0,-3.9342,-3.9415,-3.9425,-3.9493,-3.9539,-3.9603,-3.9634,-3.9647,-3.9697,-3.9696,-3.9734,-3.9748,-3.9812,-3.9843,-3.9818,-3.9923,-3.9913,-3.992,-3.99,-3.9905,-3.9908,-3.9898,-3.9824,0,0,0,0,0,-3.9346,-3.9395,-3.9456,-3.951,-3.9533,-3.958,-3.9611,-3.9632,-3.9681,-3.9701,-3.9743,-3.9791,-3.9842,-3.9876,-3.9926,-3.9994,-4.0008,-4.0021,-4.0024,-4.0026,-4.0031,-4.0069,-4.0075,-4.0009,-4.0008,-4.0008,0,0,-3.9355,-3.9401,-3.9429,-3.9508,-3.9546,-3.9596,-3.9596,-3.9649,-3.9686,-3.9709,-3.9773,-3.9806,-3.9862,-3.9929,-3.996,-3.9956,-4.0053,-4.0031,-4.0032,-4.0036,-4.0073,-4.008,-4.0085,-4.0011,-4.001,-4.001,0,0,-3.9395,-3.9435,-3.9484,-3.9523,-3.9582,-3.9613,-3.9625,-3.9687,-3.971,-3.9775,-3.9794,-3.9839,-3.9927,-3.9966,-3.9997,-4.0054,-4.0065,-4.007,-4.0086,-4.0122,-4.0127,-4.0132,-4.0152,-4.0158,-4.0075,-4.0075,-4.0075,0,-3.9398,-3.9473,-3.9508,-3.956,-3.9594,-3.9618,-3.9668,-3.9704,-3.9777,-3.98,-3.9795,-3.9906,-3.9946,-4.0022,-4.0036,-4.0061,-4.0075,-4.0062,-4.0124,-4.0129,-4.0134,-4.0153,-4.0161,-4.0075,-4.0075,-4.0075,-4.0075,0,-3.9473,-3.9526,-3.9559,-3.9628,-3.9666,-3.9717,-3.9759,-3.9794,-3.9812,-3.9843,-3.991,-3.9958,-4.0019,-4.0039,-4.0058,-4.0119,-4.0114,-4.0116,-4.0106,-4.014,-4.0158,-4.0166,-4.0075,-4.0075,-4.0075,-4.0075,0,0,-3.9504,-3.9593,-3.9604,-3.9636,-3.9703,-3.9744,-3.9796,-3.9856,-3.9885,-3.9935,-3.9979,-4.0054,-4.0056,-4.0092,-4.0115,-4.0147,-4.0188,-4.0145,-4.0147,-4.0151,-4.0258,-4.0255,-4.0263,-4.0197,-4.0199,-4.02,-4.0253,0,-3.9551,-3.9645,-3.9678,-3.9755,-3.9804,-3.9829,-3.9874,-3.992,-3.9951,-3.9997,-4.0032,-4.0084,-4.0084,-4.0106,-4.0139,-4.0176,-4.021,-4.0173,-4.0238,-4.024,-4.0221,-4.0273,-4.027,-4.0317,-4.0261,-4.0262,-4.0263,0,-3.9619,-3.967,-3.9752,-3.9813,-3.9835,-3.9875,-3.9933,-3.9977,-4.003,-4.0051,-4.0091,-4.0112,-4.0168,-4.0156,-4.0233,-4.0207,-4.0236,-4.0258,-4.0261,-4.0267,-4.0252,-4.0279,-4.0334,-4.034,-4.0275,-4.0274,-4.0273,0,-3.9632,-3.9721,-3.9781,-3.9808,-3.9882,-3.9909,-3.9941,-3.9993,-4.0027,-4.0078,-4.0101,-4.0158,-4.0188,-4.0232,-4.0268,-4.0256,-4.0342,-4.0333,-4.036,-4.0359,-4.0375,-4.0373,-4.0434,-4.0396,-4.0396,-4.0396,-4.0396,0,-3.9681,-3.973,-3.9788,-3.9825,-3.988,-3.9919,-3.9973,-4.0007,-4.0053,-4.0097,-4.0122,-4.0163,-4.0209,-4.0256,-4.0285,-4.0344,-4.0358,-4.0376,-4.0382,-4.0373,-4.037,-4.0391,-4.0388,-4.0398,-4.0397,-4.0397,-4.0397,0,-3.9704,-3.9745,-3.9812,-3.9877,-3.9894,-3.9932,-3.9988,-4.0025,-4.0057,-4.0113,-4.0128,-4.018,-4.0236,-4.0277,-4.035,-4.037,-4.0433,-4.044,-4.0415,-4.0418,-4.0442,-4.0439,-4.0517,-4.0529,-4.0484,-4.0484,-4.0485,0,-3.9731,-3.977,-3.9839,-3.987,-3.9902,-3.9952,-3.9987,-4.0027,-4.0063,-4.0127,-4.0156,-4.0214,-4.0263,-4.0352,-4.0396,-4.0453,-4.0461,-4.0484,-4.0469,-4.0458,-4.046,-4.0457,-4.046,-4.0486,-4.0486,-4.0486,-4.0487,0,-3.9776,-3.9795,-3.9844,-3.9901,-3.9943,-3.9989,-4.0037,-4.0061,-4.0109,-4.0148,-4.0206,-4.0244,-4.0319,-4.0376,-4.0437,-4.047,-4.0486,-4.0491,-4.05,-4.049,-4.0473,-4.0482,-4.0419,-4.0489,-4.0489,-4.0489,-4.0488,-4.0488,-3.9802,-3.9837,-3.9891,-3.9946,-3.9985,-4.0029,-4.0067,-4.0105,-4.0154,-4.0218,-4.0239,-4.0299,-4.0352,-4.0435,-4.047,-4.0517,-4.0516,-4.053,-4.0533,-4.0535,-4.0534,-4.0467,-4.0529,-4.0529,-4.0529,-4.0529,-4.0529,0,-3.9847,-3.9884,-3.9933,-3.9999,-4.0042,-4.0054,-4.0107,-4.0142,-4.0195,-4.0243,-4.029,-4.0358,-4.0414,-4.0463,-4.0521,-4.055,-4.0559,-4.0564,-4.0562,-4.0569,-4.0532,-4.0518,-4.0556,-4.0556,-4.0556,-4.0556,-4.0556,-4.0556,-3.9876,-3.9936,-3.9961,-4.0041,-4.0077,-4.0136,-4.0165,-4.0206,-4.0244,-4.0318,-4.0365,-4.0397,-4.0446,-4.0508,-4.056,-4.0573,-4.0593,-4.0596,-4.0611,-4.0575,-4.0572,-4.0568,-4.0555,-4.06,-4.06,-4.0643,-4.0644,-4.0644]},{"header":{"parameterUnit":"m.s-1","parameterCategory":1,"la1":30.2991,"la2":30.254,"lo1":-89.0895,"lo2":-89.0444,"dx":0.0017,"dy":0.0017,"nx":28,"ny":28,"refTime":"2022-11-28T15:00:00:Z","depth":0,"parameterNumber":3,"parameterNumberName":"V-component_of_WINDS"},"data":[0,0,0,0,0,0,0,0,0,0,0,0,0,0,0,0,0,0,0,0,0,0,0,0,0,0,0,0,0,0,0,0,0,0,0,0,0,0,0,0,0,0,0,0,0,0,0,0,0,0,0,0,0,0,0,0,0,0,4.0363,4.0364,0,4.0446,4.0446,4.0447,4.0449,4.0448,4.0447,4.0446,4.0527,4.053,4.0533,0,0,0,0,0,0,0,0,0,0,0,0,0,4.0205,4.0208,4.0362,4.0364,4.0365,4.0445,4.0446,4.0448,4.0449,4.0448,4.0447,4.0445,4.0526,4.053,4.0534,0,0,0,0,0,0,0,0,0,0,0,0,0,4.0279,4.0209,4.0362,4.0375,4.0377,4.0445,4.0447,4.0448,4.0449,4.0448,4.0446,4.0445,4.0525,4.053,4.0534,4.0594,0,0,4.0549,4.0551,0,0,0,0,0,0,0,0,4.0275,4.0285,4.0372,4.0374,4.0377,4.0435,4.0421,4.0497,4.045,4.0422,4.0446,4.0444,4.0498,4.0505,4.0523,4.0598,4.0601,4.0549,4.0552,4.0554,4.0555,0,0,0,0,0,0,0,4.027,4.0282,4.0395,4.0373,4.0376,4.0377,4.0386,4.0435,4.0467,4.0424,4.0424,4.0434,4.0499,4.0519,4.0525,4.0602,4.0549,4.0553,4.0556,4.0558,4.0735,4.0737,0,0,0,0,0,0,4.0263,4.0277,4.0393,4.0398,4.0321,4.0381,4.0391,4.0418,4.0467,4.0473,4.0436,4.0434,4.0512,4.052,4.0528,4.0604,4.0554,4.0558,4.0561,4.0733,4.0735,4.0737,0,0,0,0,0,0,4.0259,4.0273,4.0389,4.0338,4.0353,4.0385,4.0416,4.042,4.0441,4.0476,4.0481,4.0451,4.0511,4.0522,4.0579,4.0607,4.056,4.0565,4.0731,4.0734,4.0736,4.0755,0,0,0,0,0,0,4.0255,4.0272,4.0294,4.0338,4.0355,4.0439,4.0418,4.0423,4.0449,4.0448,4.0491,4.0496,4.051,4.0572,4.0584,4.0613,4.0568,4.0728,4.0732,4.0735,4.0752,4.0759,4.0764,0,0,0,0,0,4.0249,4.0295,4.0295,4.0309,4.0385,4.044,4.045,4.0466,4.0451,4.0475,4.0498,4.0495,4.0602,4.0578,4.0591,4.0622,4.0727,4.0731,4.0735,4.075,4.0757,4.0764,0,0,0,0,0,0,4.0251,4.03,4.0302,4.0363,4.0398,4.044,4.047,4.0473,4.0511,4.0508,4.0525,4.0535,4.0593,4.0613,4.0585,4.0685,4.0663,4.067,4.0669,4.0677,4.0682,4.0677,4.0572,0,0,0,0,0,4.0259,4.03,4.0341,4.0391,4.0409,4.0437,4.0461,4.0471,4.0507,4.0521,4.0548,4.0583,4.0625,4.0652,4.0692,4.0755,4.0766,4.0784,4.0789,4.0794,4.08,4.0839,4.0848,4.0751,4.0751,4.0751,0,0,4.0274,4.0307,4.0331,4.0393,4.042,4.0464,4.0449,4.0494,4.0527,4.0528,4.0585,4.0606,4.0646,4.0708,4.0736,4.0726,4.0829,4.0799,4.0803,4.0806,4.0844,4.0853,4.0861,4.0754,4.0754,4.0753,0,0,4.0326,4.0354,4.04,4.043,4.0474,4.0493,4.0504,4.0548,4.0563,4.0621,4.0624,4.0663,4.0733,4.0763,4.0787,4.0855,4.0855,4.0868,4.0897,4.0935,4.0943,4.095,4.0976,4.0986,4.0874,4.0874,4.0874,0,4.0339,4.0405,4.0424,4.0471,4.0499,4.0505,4.0553,4.058,4.0634,4.0654,4.0642,4.0734,4.0761,4.0832,4.0849,4.0868,4.0882,4.0863,4.094,4.0947,4.0954,4.098,4.099,4.0875,4.0875,4.0875,4.0875,0,4.0422,4.0468,4.05,4.0555,4.0587,4.0634,4.066,4.069,4.0698,4.0719,4.078,4.0813,4.0862,4.0879,4.0886,4.0952,4.0945,4.0937,4.0915,4.0965,4.0989,4.0999,4.0877,4.0877,4.0876,4.0876,0,0,4.0474,4.0542,4.0554,4.0581,4.0632,4.0667,4.0716,4.0766,4.0793,4.083,4.0873,4.0935,4.0929,4.0957,4.0968,4.1001,4.1056,4.0989,4.099,4.1002,4.1135,4.1142,4.1153,4.1057,4.1059,4.106,4.1132,0,4.0532,4.062,4.0641,4.0716,4.0761,4.0769,4.0812,4.0848,4.087,4.0911,4.0934,4.0979,4.0966,4.0984,4.1017,4.1043,4.1083,4.1037,4.1097,4.1099,4.1088,4.1165,4.1172,4.1238,4.1142,4.1143,4.1144,0,4.0612,4.0655,4.0736,4.0785,4.0805,4.0843,4.0893,4.0931,4.0973,4.0987,4.1021,4.1029,4.1082,4.1058,4.1132,4.11,4.1126,4.1143,4.1146,4.1152,4.1125,4.1176,4.1259,4.127,4.1159,4.1158,4.1157,0,4.0645,4.0723,4.0783,4.0805,4.0863,4.0891,4.0916,4.0957,4.0987,4.103,4.1051,4.1098,4.1125,4.1162,4.1185,4.1165,4.1258,4.1235,4.1271,4.1271,4.129,4.1289,4.1381,4.1305,4.1305,4.1305,4.1304,0,4.0709,4.0758,4.0799,4.0836,4.0893,4.0916,4.0972,4.0997,4.1035,4.1077,4.1086,4.1126,4.1152,4.1196,4.1213,4.1274,4.1285,4.1298,4.1302,4.1298,4.1297,4.1316,4.1312,4.1307,4.1307,4.1306,4.1306,0,4.0755,4.0784,4.085,4.0902,4.0916,4.0956,4.1,4.1036,4.106,4.1114,4.1128,4.1164,4.1216,4.1242,4.1306,4.1318,4.1387,4.1387,4.1374,4.1376,4.1412,4.1409,4.152,4.1537,4.1448,4.1449,4.1449,0,4.0794,4.0834,4.089,4.0921,4.0948,4.0995,4.1028,4.1053,4.1086,4.114,4.1171,4.1224,4.1268,4.1352,4.1384,4.1434,4.1437,4.1473,4.1444,4.144,4.144,4.1438,4.1444,4.1478,4.1478,4.1479,4.148,0,4.0862,4.0876,4.0922,4.0975,4.1014,4.1056,4.1098,4.1122,4.1154,4.1191,4.1246,4.1281,4.1349,4.1403,4.1456,4.1482,4.1488,4.1489,4.15,4.1497,4.1488,4.1496,4.1389,4.1486,4.1485,4.1485,4.1484,4.1484,4.0908,4.0945,4.0992,4.1044,4.1079,4.1119,4.1157,4.1187,4.1234,4.1293,4.1305,4.1364,4.1409,4.1482,4.151,4.1557,4.1549,4.1565,4.157,4.1574,4.1577,4.148,4.1567,4.1567,4.1566,4.1566,4.1566,0,4.0978,4.101,4.1058,4.1118,4.116,4.1163,4.1211,4.1246,4.1298,4.134,4.1385,4.145,4.1504,4.1542,4.1596,4.1627,4.1631,4.164,4.1639,4.1646,4.1579,4.1565,4.1637,4.1637,4.1637,4.1637,4.1637,4.1637,4.102,4.1084,4.1103,4.1186,4.1217,4.1277,4.1304,4.1342,4.1376,4.1449,4.1494,4.152,4.1561,4.1619,4.1669,4.1679,4.1699,4.171,4.172,4.1657,4.165,4.1643,4.163,4.1713,4.1713,4.1782,4.1783,4.1783]}]]